Location: Ammerl�gen
(47.2167°N, 9.6000°E)
Time: 04:39:47
(UTC+00:00)

SPOT 3 Rocket - Pass Details

Date: 21 April 2021
Orbit: 778 x 795 km, 98.7° (Epoch: 16 May)

Event Time Altitude Azimuth Distance (km) Brightness Sun altitude
Exits shadow 20:11:35 18° 177° (S) 1,870 5.1 -17.3°
Maximum altitude 20:15:30 68° 257° (WSW) 852 3.8 -17.8°
Drops below altitude 10° 20:20:41 10° 341° (NNW) 2,354 7.0 -18.4°
Sets 20:23:02 0° 344° (NNW) 3,285 7.8 -18.7°
